Weather in Termal

Turkey     40°36′19″N   29°10′26″E
temp.,
°C
wind,
m/s
gust,
m/s
humid.,
%
clouds,
%
prec.,
mm/h
press.,
hPa
HPBL,
m
28 november, sun
sun2800:00+14sse1264100 0.0 100918
03:00+12ese2486100 1.3 1009140
06:00+13se3478100 0.4 1006122
09:00+16sw9175815 0.5 10051221
12:00+18wsw111855100 0.2 10072012
15:00+18sw916494 0.3 10071793
18:00+15sw485592 0.0 1008168
21:00+14s375283 0.0 1008243
29 november, mon
mon2900:00+13sse23572 0.0 100855
03:00+12se35611 0.0 100696
06:00+13se34635 0.0 100473
09:00+18s51247100 0.0 1003590
12:00+22ssw132537100 0.0 10022127
15:00+19sw102253100 0.1 10021774
18:00+17wsw152859100 1.1 10042322
21:00+15wsw122760100 1.6 10052242
30 november, tue
tue3000:00+14wsw1324605 0.1 10061872
03:00+12sw918600 0.1 10071220
06:00+11sw496417 0.0 1005351
09:00+12ssw8195993 0.0 10031735
12:00+12sw122166100 2.8 10042255
15:00+12wsw12196696 4.1 10041904
18:00+9w81380100 1.8 1007942
21:00+7w267163 2.0 1012544
1 december, wed
wed100:00+6nnw227599 0.0 1015563
03:00+5nne118077 0.0 1016190
06:00+5w127989 0.1 1017437
09:00+5sw238321 0.1 1018256
12:00+7wsw34617 0.1 1018991
15:00+8wsw34495 0.1 1017981
18:00+5wsw226313 0.0 101824
21:00+5sw22665 0.0 101818
2 december, thu
thu200:00+5s11620 0.0 101918
03:00+4sse11600 0.0 101820
06:00+4se22570 0.0 101822
09:00+5ese23590 0.0 101848
12:00+10ese33410 0.0 1017285
15:00+12ese34390 0.0 1015386
18:00+9ese22550 0.0 101517
21:00+8ese22600 0.0 101619